Weather History for KSZL - April, 2013

Change the Weather History Date:

Thursday, April 11, 2013

  Actual Average Record
Temperature  
Mean Temperature 38 °F -  
Max Temperature 41 °F 62 °F 78 °F (2002)
Min Temperature 35 °F 43 °F 32 °F (2009)
Degree Days  
Heating Degree Days 26    
Moisture  
Dew Point 36 °F    
Average Humidity 91    
Maximum Humidity 100    
Minimum Humidity 66    
Precipitation  
Precipitation 0.00 in - - ()
Sea Level Pressure  
Sea Level Pressure 29.76 in    
Wind  
Wind Speed 15 mph (West)    
Max Wind Speed 21 mph    
Max Gust Speed 25 mph    
Visibility 10 miles    
Events      
Averages and records for this station are not official NWS values.
T = Trace of Precipitation, MM = Missing Value Source: NWS Daily Summary

Daily Weather History Graph

Daily Weather History Graph

Search for Another Location

Airport or City:

Trip Planner

Search our weather history database for the weather conditions in past years. The results will help you decide how hot, cold, wet, or windy it might be!

Date:

Astronomy

Apr. 11, 2013 Rise Set
Actual Time 6:43 AM CDT 7:47 PM CDT
Civil Twilight 6:16 AM CDT 8:14 PM CDT
Nautical Twilight 5:43 AM CDT 8:47 PM CDT
Astronomical Twilight 5:09 AM CDT 9:21 PM CDT
Moon 7:16 AM CDT (4/11) 9:21 PM CDT (4/11)
Length of Visible Light 13h 58m
Length of Day
13h 04m
New Moon, 2% of the Moon is Illuminated
Apr 11
New Moon
Apr 18
First Quarter
Apr 25
Full
May 2
Last Quarter
May 9
New

Hourly Weather History & Observations

Time (CDT) Temp. Windchill Dew Point Humidity Pressure Visibility Wind Dir Wind Speed Gust Speed Precip Events Conditions
12:13 AM 42.8 °F 35.1 °F 42.8 °F 100% 29.75 in 10.0 mi WSW 16.1 mph - N/A   Overcast
12:43 AM 42.8 °F 34.8 °F 42.8 °F 100% 29.77 in 9.0 mi WSW 17.3 mph - N/A   Overcast
12:53 AM 42.8 °F 34.8 °F 42.8 °F 100% 29.76 in 7.0 mi West 17.3 mph 24.2 mph N/A   Overcast
12:58 AM 42.1 °F 34.5 °F 42.1 °F 100% 29.78 in 7.0 mi WSW 15.0 mph 24.2 mph N/A   Overcast
1:01 AM 41.0 °F 31.9 °F 41.0 °F 100% 29.76 in 8.0 mi West 19.6 mph 24.2 mph N/A   Overcast
1:06 AM 41.0 °F 32.5 °F 41.0 °F 100% 29.76 in 10.0 mi West 17.3 mph 24.2 mph N/A   Overcast
1:10 AM 41.0 °F 32.5 °F 41.0 °F 100% 29.76 in 10.0 mi West 17.3 mph 24.2 mph N/A   Overcast
1:20 AM 41.0 °F 32.8 °F 41.0 °F 100% 29.76 in 10.0 mi West 16.1 mph - N/A   Overcast
1:43 AM 41.0 °F 32.5 °F 41.0 °F 100% 29.77 in 10.0 mi West 17.3 mph - N/A   Light Drizzle
1:58 AM 40.3 °F 31.9 °F 40.3 °F 100% 29.78 in 10.0 mi WSW 16.1 mph 21.9 mph 0.00 in   Light Drizzle
1:59 AM 41.0 °F 33.1 °F 41.0 °F 100% 29.76 in 10.0 mi WSW 15.0 mph 21.9 mph N/A   Overcast
2:04 AM 39.2 °F 30.8 °F 39.2 °F 100% 29.76 in 9.0 mi West 15.0 mph - N/A   Overcast
2:14 AM 39.2 °F 30.5 °F 39.2 °F 100% 29.76 in 10.0 mi West 16.1 mph - N/A   Overcast
2:29 AM 39.2 °F 30.2 °F 39.2 °F 100% 29.76 in 10.0 mi West 17.3 mph 23.0 mph N/A   Overcast
2:54 AM 39.2 °F 30.8 °F 39.2 °F 100% 29.75 in 10.0 mi West 15.0 mph - N/A   Overcast
2:58 AM 39.2 °F 30.2 °F 39.2 °F 100% 29.77 in 10.0 mi West 17.3 mph - 0.00 in   Overcast
3:45 AM 37.4 °F 30.3 °F 37.4 °F 100% 29.75 in 10.0 mi West 10.4 mph - N/A   Overcast
3:58 AM 37.4 °F 29.8 °F 37.4 °F 100% 29.77 in 10.0 mi West 11.5 mph - 0.00 in   Light Drizzle
4:13 AM 37.4 °F 29.8 °F 37.4 °F 100% 29.75 in 9.0 mi West 11.5 mph - N/A   Light Drizzle
4:21 AM 37.4 °F 30.3 °F 37.4 °F 100% 29.75 in 9.0 mi West 10.4 mph - N/A   Overcast
4:23 AM 37.4 °F 30.3 °F 37.4 °F 100% 29.76 in 9.0 mi West 10.4 mph - N/A   Light Drizzle
4:28 AM 37.4 °F 30.8 °F 37.4 °F 100% 29.74 in 10.0 mi West 9.2 mph - N/A   Light Drizzle
4:33 AM 37.4 °F 30.8 °F 37.4 °F 100% 29.72 in 10.0 mi West 9.2 mph - N/A   Light Drizzle
4:36 AM 37.4 °F 30.8 °F 37.4 °F 100% 29.73 in 10.0 mi West 9.2 mph - N/A   Overcast
4:58 AM 36.9 °F 30.7 °F 36.9 °F 100% 29.75 in 10.0 mi West 8.1 mph - 0.00 in   Overcast
5:03 AM 37.4 °F 30.3 °F 37.4 °F 100% 29.74 in 10.0 mi WSW 10.4 mph - N/A   Overcast
5:13 AM 37.4 °F 30.8 °F 37.4 °F 100% 29.75 in 10.0 mi WSW 9.2 mph - N/A   Overcast
5:55 AM 37.4 °F 28.2 °F 37.4 °F 100% 29.77 in 10.0 mi West 16.1 mph - N/A   Overcast
6:55 AM 36.0 °F 28.5 °F 36.0 °F 100% 29.78 in 9.0 mi WSW 10.4 mph - N/A   Light Drizzle
7:55 AM 35.6 °F 27.1 °F 35.6 °F 100% 29.77 in 10.0 mi WSW 12.7 mph - 0.00 in   Overcast
8:55 AM 35.6 °F 24.5 °F 35.6 °F 100% 29.75 in 10.0 mi West 20.7 mph - N/A   Overcast
9:55 AM 35.6 °F 25.9 °F 35.1 °F 98% 29.78 in 10.0 mi WSW 16.1 mph 23.0 mph N/A   Overcast
10:55 AM 35.8 °F 26.1 °F 33.8 °F 92% 29.76 in 10.0 mi West 16.1 mph - N/A   Overcast
11:55 AM 37.4 °F 28.5 °F 32.0 °F 81% 29.77 in 10.0 mi West 15.0 mph 23.0 mph N/A   Overcast
12:58 PM 37.4 °F 28.9 °F 32.0 °F 81% 29.76 in 10.0 mi WSW 13.8 mph 23.0 mph N/A   Overcast
1:58 PM 37.0 °F 27.4 °F 32.0 °F 82% 29.78 in 10.0 mi West 17.3 mph 23.0 mph N/A   Overcast
2:58 PM 39.2 °F 30.8 °F 31.1 °F 73% 29.76 in 10.0 mi West 15.0 mph - N/A   Overcast
3:08 PM 39.2 °F 30.8 °F 32.0 °F 75% 29.74 in 10.0 mi West 15.0 mph 25.3 mph N/A   Overcast
3:13 PM 39.2 °F 30.5 °F 32.0 °F 75% 29.73 in 10.0 mi West 16.1 mph 23.0 mph N/A   Overcast
3:23 PM 39.2 °F 31.6 °F 32.0 °F 75% 29.73 in 10.0 mi West 12.7 mph 23.0 mph N/A   Overcast
3:58 PM 39.4 °F 31.8 °F 30.0 °F 69% 29.75 in 10.0 mi West 12.7 mph 21.9 mph N/A   Overcast
4:58 PM 40.3 °F 33.4 °F 30.4 °F 68% 29.75 in 10.0 mi West 11.5 mph 20.7 mph N/A   Overcast
5:58 PM 40.8 °F 35.0 °F 30.2 °F 66% 29.75 in 10.0 mi West 9.2 mph - N/A   Overcast
6:58 PM 40.6 °F 35.4 °F 31.5 °F 70% 29.76 in 10.0 mi West 8.1 mph - N/A   Overcast
7:58 PM 40.3 °F 34.4 °F 31.3 °F 70% 29.78 in 10.0 mi West 9.2 mph - N/A   Overcast
8:58 PM 39.9 °F 34.5 °F 30.2 °F 68% 29.79 in 10.0 mi West 8.1 mph - N/A   Overcast
9:58 PM 39.2 °F 33.6 °F 30.9 °F 72% 29.80 in 10.0 mi West 8.1 mph - N/A   Overcast
10:58 PM 37.8 °F 31.3 °F 28.9 °F 71% 29.80 in 10.0 mi West 9.2 mph - N/A   Partly Cloudy
11:58 PM 35.8 °F 29.4 °F 29.7 °F 78% 29.79 in 10.0 mi WSW 8.1 mph - N/A   Clear